Regional Weather Roundup
Issued by NWS Charleston, SC

Current Version | Previous Version | Graphics & Text | Print | Product List | Glossary On
Versions: 1 2 3 4 5 6 7 8 9 10 11 12 13 14 15 16 17 18 19 20 21 22 23 24 25 26 27 28 29 30 31 32 33 34 35 36 37 38 39 40 41 42 43 44 45 46 47 48 49 50
000
ASUS42 KCHS 171527
RWRCHS

REGIONAL WEATHER ROUNDUP
NATIONAL WEATHER SERVICE CHARLESTON SC
1100 AM EDT THU AUG 17 2017

NOTE: "FAIR" INDICATES FEW OR NO CLOUDS BELOW 12,000 FEET WITH NO
SIGNIFICANT WEATHER AND/OR OBSTRUCTIONS TO VISIBILITY.

NOT ALL STATIONS ARE QUALITY CONTROLLED. USE DATA WITH CAUTION...
ESPECIALLY DEWPOINT OBSERVATIONS.

SCZ027-030-031-034>040-042>050-171600-
...SOUTHEAST SOUTH CAROLINA...

CITY           SKY/WX    TMP DP  RH WIND       PRES   REMARKS
N CHARLESTON   MOSUNNY   91  78  65 SW6       30.04S HX 106
WATERFRONT PRK   N/A    N/A N/A N/A CALM      29.90R
JOHNS ISLAND   FAIR      93  79  62 W6        30.05S HX 110
PINOPOLIS        N/A     88  81  79 VRB2      29.98R HX 105
MONCKS CORNER  FAIR      90  75  62 CALM      30.04S HX 100
SUMMERVILLE    FAIR      90  75  62 CALM      30.05F HX 100
BEAUFORT MCAS  SUNNY     92  79  65 VRB5      30.06R HX 108
BEAUFORT ARPT  FAIR      90  77  66 W7        30.06R HX 102
HILTON HEAD IS SUNNY     91  77  62 CALM      30.07R HX 105
WALTERBORO     SUNNY     90  77  66 SW6       30.06S HX 102
ALLENDALE      NOT AVBL

...SOUTHERN MIDLANDS AND PEE DEE...

CITY           SKY/WX    TMP DP  RH WIND       PRES   REMARKS
GEORGETOWN     FAIR      90  79  70 W3        30.05S HX 105
KINGSTREE      FAIR      90  77  66 NW3       30.04S HX 102
ORANGEBURG     SUNNY     91  76  61 W8        30.05S HX 103
BARNWELL       FAIR      93  77  59 CALM      30.06F HX 107
AIKEN          FAIR      90  75  62 W7        30.10S HX 100
MANNING        FAIR      91  79  66 CALM      30.04S HX 107
COLUMBIA       MOSUNNY   93  75  55 W7        30.04S HX 104
SUMTER         SUNNY     92  74  55 CALM      30.02S HX 101
FLORENCE       SUNNY     89  79  72 VRB5      30.04S HX 104
MYRTLE BEACH   SUNNY     88  81  79 SE8       30.05R HX 105
N MYRTLE BEACH MOSUNNY   86  80  82 S8        30.04R HX 101

$$

GAZ063-065-086>088-099>101-113>116-118-119-134>141-150-171600-
...SOUTHEAST GEORGIA...

CITY           SKY/WX    TMP DP  RH WIND       PRES   REMARKS
SAVANNAH ARPT  MOSUNNY   92  77  61 W7        30.07R HX 105
HUNTER AAF     MOSUNNY   91  77  62 W7        30.04S HX 105
FORT STEWART   SUNNY     91  75  57 W6        30.05S HX 102
STATESBORO     MOSUNNY   91  71  51 W6        30.07F HX  97
SYLVANIA       MOSUNNY   91  78  65 NW3       30.08S HX 105
CLAXTON        FAIR      92  77  60 W8        30.07F HX 106

...CSRA...CENTRAL AND FAR SOUTHEAST GEORGIA...

CITY           SKY/WX    TMP DP  RH WIND       PRES   REMARKS
THOMSON        MOSUNNY   90  74  60 N8        30.13S HX  99
AUGUSTA-BUSH   SUNNY     92  76  59 W6        30.05F HX 104
AUGUSTA-DANIEL SUNNY     91  73  55 CALM      30.08S HX  99
SWAINSBORO     FAIR      88  77  70 NW8       30.09S HX 100
VIDALIA        MOSUNNY   91  75  59 W7        30.09S HX 102
EASTMAN        FAIR      91  64  41 NW7       30.12S HX  92
HAZLEHURST     FAIR      92  63  37 W3        30.08S HX  92
ALMA           SUNNY     91  75  59 NW6       30.09S HX 101
WAYCROSS       MOSUNNY   90  73  56 N3        30.08F HX  98
JESUP          FAIR      91  73  55 NW7       30.08S HX 100
BAXLEY         FAIR      88  75  66 NW3       30.08F HX  97
BRUNSWICK      SUNNY     90  73  58 W5        30.08S HX  98
SAINT SIMONS   SUNNY     91  76  61 W7        30.07S HX 103

$$

SCZ027-028-034-036>038-045-046-048>050-GAZ119-141-171600-
...LAKE AND SUPPLEMENTAL COASTAL OBSERVATIONS...

STATION/POSITION TIME  TEMP    WIND        PRES    WAVE   SWELL
                       AIR SEA DIR/SP/G            HT/PER HT/PER/DIR
                 (UTC) (F)     (DEG/KT/KT) (MB)    (FT/S) (FT/S/D)
WINYAH BAY       1445   90     180/  1     1017.0S
LAKE MURRAY      1520   88     270/  7/  9 1016.6S
ACE BASIN NERRS  1445   92     210/  1     1018.0R
FORT PULASKI     1500   88 86  300/  5/  6 1018.4
SAPELO ISLAND    1500   92     310/  2     1018.0

$$

ANZ835-935-AMZ111-154-330-350-352-354-370-450-454-472-171600-
...C-MAN AND BUOY OBSERVATIONS...

STATION/POSITION TIME  TEMP    WIND        PRES    WAVE   SWELL
                       AIR SEA DIR/SP/G            HT/PER HT/PER/DIR
                 (UTC) (F)     (DEG/KT/KT) (MB)    (FT/S) (FT/S/D)
BUOY 41004       1510   84 85  230/  6/  8 1017.4
BUOY 41008       1450   85 85  270/  6/  8 1018.0R   1/ 4
FOLLY BEACH CMAN 1500   88     200/  6/  8 1018.1R
CAPERS NEARSHORE 1508   86 86  240/  6/ 10 1017.4R
FRIPP NEARSHORE  1508   87     250/  6/  8 1017.8R


STATION/POSITION TIME  TEMP    WIND        PRES    WAVE   SWELL
                       AIR SEA DIR/SP/G            HT/PER HT/PER/DIR
                 (UTC) (F)     (DEG/KT/KT) (MB)    (FT/S) (FT/S/D)
5E ST. MARYS GA  1430      84                N/A     1/ 9
FRYING PAN BUOY  1510   84 84  160/  4/  6 1017.5
BUOY 41025       1450   79 82   20/  4/  8 1017.9S   2/ 7   2/ 80/ 7
CAPE LOOKOUT NC  1500   82     110/  4/  4 1017.8R
BUOY 41002       1450   84 84  270/  8/ 10 1018.4R   3/ 5   2/230/ 5
BUOY 41010       1510   85 86  270/  6/  8 1019.3
ST AUGUSTINE FL  1500   89 81  250/  5/  6 1019.0F


$$




USA.gov is the U.S. government's official web portal to all federal, state and local government web resources and services.